Total_Precipitation_Accumulation
0.06 0.13 0.36 0.45 0.53 0.53 0.50 0.47 0.46 0.47 0.48 0.50 0.49 0.47 0.46 0.46 0.47 0.41 0.40 0.36 0.36 0.42 0.51 0.58 0.55 0.49 0.43 0.38 0.34 0.27 0.22 0.18 0.18 0.17 0.16 0.19 0.21 0.21 0.17 0.17 0.21 0.25 0.32
0.06 0.13 0.34 0.45 0.57 0.56 0.57 0.53 0.50 0.47 0.52 0.57 0.60 0.57 0.53 0.48 0.47 0.41 0.38 0.37 0.37 0.42 0.53 0.56 0.52 0.41 0.29 0.21 0.18 0.16 0.14 0.12 0.09 0.06 0.04 0.06 0.10 0.13 0.13 0.13 0.16 0.20 0.24
0.06 0.14 0.34 0.49 0.58 0.59 0.60 0.56 0.52 0.49 0.56 0.65 0.72 0.66 0.57 0.48 0.45 0.44 0.38 0.36 0.40 0.49 0.53 0.51 0.44 0.33 0.24 0.20 0.15 0.10 0.09 0.08 0.06 0.03 0.03 0.06 0.09 0.12 0.12 0.13 0.16 0.21 0.23
0.11 0.17 0.33 0.56 0.61 0.62 0.63 0.62 0.60 0.58 0.57 0.64 0.74 0.68 0.60 0.55 0.53 0.47 0.42 0.38 0.41 0.45 0.44 0.42 0.35 0.27 0.19 0.14 0.12 0.10 0.08 0.07 0.05 0.04 0.07 0.08 0.09 0.15 0.17 0.18 0.20 0.23 0.26
0.21 0.26 0.44 0.64 0.72 0.68 0.68 0.65 0.66 0.66 0.65 0.66 0.70 0.69 0.63 0.58 0.58 0.54 0.47 0.40 0.38 0.41 0.41 0.36 0.28 0.22 0.16 0.12 0.10 0.10 0.09 0.08 0.05 0.04 0.08 0.10 0.12 0.21 0.26 0.24 0.25 0.26 0.26
0.31 0.44 0.65 0.80 0.83 0.80 0.75 0.71 0.72 0.76 0.80 0.78 0.77 0.73 0.68 0.64 0.64 0.62 0.51 0.39 0.36 0.36 0.37 0.34 0.27 0.22 0.16 0.12 0.09 0.08 0.09 0.08 0.04 0.04 0.06 0.10 0.14 0.28 0.30 0.26 0.28 0.28 0.29
0.40 0.59 0.84 1.00 1.00 0.95 0.89 0.89 0.87 0.90 0.92 0.90 0.87 0.82 0.73 0.70 0.69 0.65 0.53 0.39 0.36 0.36 0.37 0.33 0.28 0.24 0.20 0.16 0.12 0.10 0.08 0.06 0.04 0.04 0.07 0.10 0.18 0.30 0.28 0.27 0.31 0.33 0.36
0.66 0.85 1.06 1.22 1.19 1.07 0.98 0.93 0.91 0.96 0.97 0.95 0.88 0.85 0.80 0.75 0.73 0.69 0.58 0.45 0.40 0.43 0.44 0.39 0.33 0.28 0.22 0.18 0.15 0.11 0.07 0.05 0.05 0.05 0.07 0.10 0.19 0.32 0.29 0.26 0.28 0.33 0.38
1.16 1.27 1.32 1.36 1.30 1.25 1.09 0.97 0.91 0.90 0.95 0.98 0.94 0.90 0.87 0.84 0.84 0.75 0.65 0.56 0.49 0.49 0.48 0.44 0.37 0.30 0.26 0.22 0.17 0.11 0.07 0.05 0.05 0.05 0.06 0.09 0.19 0.35 0.38 0.36 0.37 0.38 0.38
1.61 1.69 1.69 1.62 1.52 1.41 1.28 1.06 0.94 0.93 0.93 0.96 0.94 0.85 0.78 0.78 0.78 0.71 0.59 0.57 0.54 0.52 0.46 0.41 0.37 0.36 0.29 0.24 0.19 0.12 0.08 0.07 0.05 0.05 0.07 0.12 0.24 0.43 0.50 0.48 0.48 0.44 0.38
1.95 1.98 2.04 1.99 1.82 1.68 1.47 1.18 1.06 1.04 1.01 0.96 0.92 0.81 0.80 0.81 0.77 0.64 0.53 0.48 0.49 0.48 0.44 0.42 0.39 0.36 0.32 0.25 0.19 0.14 0.11 0.09 0.06 0.05 0.08 0.17 0.31 0.43 0.45 0.47 0.46 0.38 0.32
2.11 2.13 2.16 2.21 2.15 2.03 1.77 1.48 1.34 1.20 1.12 0.99 0.85 0.84 0.77 0.78 0.81 0.67 0.60 0.52 0.48 0.46 0.43 0.44 0.43 0.40 0.34 0.26 0.21 0.16 0.14 0.12 0.11 0.09 0.10 0.16 0.29 0.41 0.46 0.46 0.43 0.37 0.31
2.32 2.34 2.33 2.42 2.37 2.21 1.96 1.69 1.48 1.35 1.28 1.18 1.00 0.92 0.84 0.84 0.82 0.81 0.77 0.68 0.60 0.50 0.49 0.46 0.46 0.36 0.31 0.28 0.26 0.19 0.16 0.16 0.14 0.12 0.11 0.13 0.24 0.44 0.55 0.51 0.42 0.38 0.35
2.48 2.40 2.43 2.49 2.49 2.35 2.08 1.87 1.60 1.47 1.39 1.35 1.22 1.12 1.07 0.99 0.92 0.85 0.77 0.70 0.69 0.60 0.57 0.52 0.43 0.36 0.30 0.26 0.26 0.25 0.22 0.21 0.19 0.18 0.16 0.14 0.21 0.37 0.48 0.49 0.48 0.48 0.46
2.44 2.47 2.52 2.45 2.42 2.40 2.28 2.03 1.73 1.58 1.45 1.38 1.40 1.29 1.21 1.14 1.04 1.00 0.87 0.77 0.69 0.66 0.64 0.59 0.51 0.46 0.40 0.34 0.29 0.28 0.27 0.23 0.21 0.22 0.21 0.18 0.17 0.25 0.36 0.44 0.53 0.59 0.61
2.18 2.40 2.54 2.52 2.43 2.34 2.34 2.26 1.95 1.62 1.55 1.50 1.46 1.43 1.36 1.28 1.20 1.14 1.00 0.90 0.80 0.73 0.69 0.68 0.61 0.58 0.55 0.50 0.41 0.34 0.31 0.27 0.23 0.21 0.20 0.21 0.21 0.21 0.26 0.37 0.49 0.61 0.70
1.95 2.17 2.40 2.60 2.58 2.43 2.35 2.38 2.31 1.99 1.69 1.51 1.49 1.49 1.46 1.39 1.29 1.21 1.15 1.02 0.89 0.84 0.81 0.82 0.79 0.75 0.67 0.61 0.53 0.48 0.43 0.38 0.32 0.26 0.23 0.22 0.25 0.26 0.27 0.32 0.42 0.55 0.70
1.82 2.00 2.19 2.32 2.51 2.49 2.38 2.30 2.30 2.21 1.99 1.73 1.53 1.48 1.46 1.40 1.37 1.34 1.29 1.26 1.13 1.06 1.01 0.93 0.89 0.84 0.74 0.68 0.63 0.59 0.54 0.50 0.46 0.41 0.36 0.32 0.31 0.28 0.27 0.31 0.39 0.48 0.62
1.71 1.92 2.18 2.15 2.27 2.50 2.64 2.49 2.31 2.20 2.04 1.87 1.64 1.46 1.42 1.44 1.43 1.38 1.28 1.29 1.34 1.25 1.14 1.07 0.96 0.89 0.78 0.74 0.74 0.68 0.62 0.58 0.54 0.52 0.51 0.47 0.44 0.40 0.37 0.37 0.35 0.35 0.43
1.72 1.88 2.13 2.14 2.23 2.45 2.72 2.72 2.57 2.36 2.10 1.96 1.73 1.51 1.41 1.38 1.45 1.38 1.29 1.30 1.33 1.31 1.20 1.13 1.04 0.98 0.88 0.86 0.84 0.76 0.70 0.64 0.61 0.57 0.53 0.52 0.51 0.48 0.46 0.43 0.39 0.38 0.38
1.85 1.88 2.02 2.14 2.25 2.35 2.46 2.43 2.30 2.24 2.16 2.04 1.90 1.76 1.59 1.50 1.51 1.51 1.41 1.38 1.39 1.33 1.27 1.27 1.29 1.18 1.07 1.07 1.01 0.83 0.72 0.67 0.61 0.57 0.54 0.51 0.47 0.46 0.43 0.41 0.39 0.37 0.37
1.76 1.83 1.99 2.14 2.20 2.18 2.29 2.43 2.34 2.36 2.35 2.31 2.22 2.04 1.87 1.73 1.66 1.62 1.61 1.59 1.53 1.43 1.38 1.35 1.36 1.31 1.21 1.21 1.20 1.13 0.90 0.73 0.61 0.54 0.52 0.49 0.50 0.49 0.45 0.43 0.42 0.39 0.36
1.64 1.86 1.97 2.05 2.15 2.18 2.38 2.79 2.72 2.59 2.52 2.46 2.37 2.24 2.08 1.96 1.87 1.71 1.66 1.73 1.69 1.57 1.48 1.44 1.42 1.39 1.39 1.36 1.30 1.35 1.11 0.81 0.66 0.58 0.52 0.47 0.49 0.54 0.54 0.52 0.48 0.43 0.38
1.44 1.70 1.97 2.08 2.20 2.36 2.56 2.77 2.81 2.56 2.36 2.32 2.32 2.31 2.26 2.05 1.95 1.88 1.81 1.76 1.77 1.73 1.61 1.56 1.53 1.48 1.48 1.45 1.37 1.23 1.14 0.96 0.85 0.69 0.55 0.52 0.51 0.50 0.51 0.53 0.52 0.50 0.49
1.31 1.48 1.73 2.00 2.11 2.34 2.52 2.60 2.75 2.56 2.29 2.31 2.30 2.25 2.27 2.16 1.98 1.91 1.84 1.74 1.64 1.62 1.64 1.64 1.61 1.56 1.46 1.36 1.29 1.20 1.13 0.98 0.83 0.78 0.63 0.51 0.52 0.49 0.48 0.50 0.53 0.55 0.56
1.14 1.26 1.42 1.65 1.77 1.90 2.10 2.31 2.47 2.49 2.40 2.31 2.18 2.11 2.08 2.06 2.02 1.96 1.90 1.79 1.64 1.54 1.49 1.51 1.54 1.54 1.52 1.42 1.32 1.24 1.17 1.09 0.95 0.89 0.82 0.65 0.60 0.54 0.53 0.54 0.54 0.55 0.57